Waukesha, WI

4:13 AM CDT on May 25, 2017 (GMT -0500)
Waukesha County

Weather History for KUES - January, 2013

Change the Weather History Date:

Sunday, January 6, 2013

  Actual Average Record
Temperature  
Mean Temperature 24 °F -  
Max Temperature 32 °F 26 °F 51 °F (2008)
Min Temperature 17 °F 12 °F -16 °F (2014)
Degree Days  
Heating Degree Days 40    
Moisture  
Dew Point 22 °F    
Average Humidity 89    
Maximum Humidity 100    
Minimum Humidity 74    
Precipitation  
Precipitation 0.00 in - - ()
Sea Level Pressure  
Sea Level Pressure 30.07 in    
Wind  
Wind Speed 10 mph (WSW)    
Max Wind Speed 20 mph    
Max Gust Speed 24 mph    
Visibility 9 miles    
Events Snow    
Averages and records for this station are not official NWS values.
T = Trace of Precipitation, MM = Missing Value Source: NWS Daily Summary

Daily Weather History Graph

Daily Weather History Graph

Search for Another Location

Airport or City:

Trip Planner

Search our weather history database for the weather conditions in past years. The results will help you decide how hot, cold, wet, or windy it might be!

Date:

Astronomy

Jan. 06, 2013 Rise Set
Actual Time 7:24 AM CST 4:33 PM CST
Civil Twilight 6:52 AM CST 5:05 PM CST
Nautical Twilight 6:16 AM CST 5:41 PM CST
Astronomical Twilight 5:42 AM CST 6:15 PM CST
Moon 1:34 AM CST (1/6) 12:03 PM CST (1/6)
Length of Visible Light 10h 13m
Length of Day
9h 09m
Waning Crescent, 33% of the Moon is Illuminated
Jan 6
Waning Crescent
Jan 11
New
Jan 18
First Quarter
Jan 26
Full
Feb 3
Last Quarter

Hourly Weather History & Observations

Time (CST) Temp. Windchill Dew Point Humidity Pressure Visibility Wind Dir Wind Speed Gust Speed Precip Events Conditions
12:15 AM 32.0 °F 23.6 °F 32.0 °F 100% 29.86 in 7.0 mi SW 10.4 mph - N/A   Overcast
12:35 AM 32.0 °F 23.6 °F 32.0 °F 100% 29.86 in 7.0 mi SW 10.4 mph 17.3 mph N/A   Overcast
12:55 AM 32.0 °F 23.6 °F 32.0 °F 100% 29.85 in 7.0 mi SW 10.4 mph 17.3 mph N/A   Overcast
1:35 AM 32.0 °F 24.2 °F 30.2 °F 93% 29.86 in 7.0 mi SW 9.2 mph - N/A   Overcast
1:55 AM 32.0 °F 24.2 °F 30.2 °F 93% 29.85 in 7.0 mi SW 9.2 mph - N/A   Overcast
2:15 AM 32.0 °F 23.6 °F 30.2 °F 93% 29.86 in 10.0 mi WSW 10.4 mph - N/A   Overcast
2:35 AM 32.0 °F 24.2 °F 30.2 °F 93% 29.86 in 10.0 mi West 9.2 mph - N/A   Overcast
2:55 AM 32.0 °F 23.0 °F 28.4 °F 87% 29.86 in 10.0 mi WSW 11.5 mph - N/A   Overcast
3:35 AM 30.2 °F 19.8 °F 26.6 °F 86% 29.86 in 10.0 mi West 13.8 mph - N/A   Overcast
3:55 AM 30.2 °F 20.2 °F 26.6 °F 86% 29.86 in 4.0 mi West 12.7 mph - N/A Snow Light Snow
4:15 AM 28.4 °F 18.5 °F 26.6 °F 93% 29.87 in 5.0 mi West 11.5 mph - N/A   Overcast
4:35 AM 28.4 °F 18.0 °F 26.6 °F 93% 29.87 in 10.0 mi WNW 12.7 mph 18.4 mph N/A   Overcast
5:45 AM 24.8 °F 14.0 °F 19.4 °F 80% 29.92 in 10.0 mi WNW 11.5 mph - N/A   Overcast
6:45 AM 21.2 °F 7.8 °F 17.6 °F 86% 29.94 in 10.0 mi WNW 15.0 mph - N/A   Overcast
7:45 AM 21.2 °F 8.3 °F 17.6 °F 86% 29.97 in 10.0 mi WNW 13.8 mph - N/A   Overcast
8:45 AM 23.0 °F 10.1 °F 19.4 °F 86% 30.00 in 10.0 mi WNW 15.0 mph - N/A   Overcast
9:45 AM 24.8 °F 11.5 °F 19.4 °F 80% 30.04 in 10.0 mi WNW 17.3 mph - N/A   Overcast
10:30 AM 24.8 °F 10.7 °F 21.2 °F 86% 30.06 in 10.0 mi WNW 19.6 mph 24.2 mph N/A   Overcast
10:45 AM 24.8 °F 12.4 °F 21.2 °F 86% 30.06 in 10.0 mi WNW 15.0 mph 23.0 mph N/A   Overcast
11:05 AM 24.8 °F 13.4 °F 21.2 °F 86% 30.07 in 10.0 mi WNW 12.7 mph 18.4 mph N/A   Overcast
11:45 AM 26.6 °F 13.1 °F 21.2 °F 80% 30.08 in 10.0 mi WNW 19.6 mph - N/A   Overcast
1:45 PM 28.4 °F 18.5 °F 21.2 °F 74% 30.10 in 10.0 mi WNW 11.5 mph 18.4 mph N/A   Scattered Clouds
2:45 PM 28.4 °F 18.0 °F 21.2 °F 74% 30.14 in 10.0 mi WNW 12.7 mph 18.4 mph N/A   Scattered Clouds
3:45 PM 26.6 °F 16.2 °F 21.2 °F 80% 30.18 in 10.0 mi WNW 11.5 mph - N/A   Clear
4:45 PM 24.8 °F 14.0 °F 19.4 °F 80% 30.21 in 10.0 mi West 11.5 mph - N/A   Clear
5:45 PM 23.0 °F 11.7 °F 19.4 °F 86% 30.24 in 10.0 mi West 11.5 mph - N/A   Clear
6:45 PM 21.2 °F 12.6 °F 17.6 °F 86% 30.25 in 10.0 mi West 6.9 mph - N/A   Clear
7:45 PM 21.2 °F 14.9 °F 17.6 °F 86% 30.26 in 10.0 mi SW 4.6 mph - N/A   Clear
8:15 PM 21.2 °F 14.9 °F 19.4 °F 93% 30.25 in 10.0 mi SW 4.6 mph - N/A   Clear
8:35 PM 19.4 °F 12.8 °F 17.6 °F 93% 30.25 in 7.0 mi SSW 4.6 mph - N/A   Clear
8:45 PM 19.4 °F 11.5 °F 17.6 °F 93% 30.26 in 10.0 mi SW 5.8 mph - N/A   Clear
8:55 PM 19.4 °F 10.4 °F 17.6 °F 93% 30.26 in 7.0 mi SSW 6.9 mph - N/A   Clear
9:15 PM 19.4 °F 11.5 °F 17.6 °F 93% 30.27 in 7.0 mi SSW 5.8 mph - N/A   Clear
9:35 PM 17.6 °F 12.3 °F 17.6 °F 100% 30.27 in 7.0 mi SW 3.5 mph - N/A   Clear
9:55 PM 17.6 °F 12.3 °F 15.8 °F 93% 30.27 in 7.0 mi SSW 3.5 mph - N/A   Clear
10:15 PM 17.6 °F 9.3 °F 17.6 °F 100% 30.27 in 7.0 mi SSW 5.8 mph - N/A   Clear
10:55 PM 17.6 °F 10.7 °F 15.8 °F 93% 30.28 in 7.0 mi SW 4.6 mph - N/A   Clear
11:15 PM 17.6 °F 12.3 °F 14.0 °F 86% 30.28 in 7.0 mi SSW 3.5 mph - N/A   Clear
11:35 PM 17.6 °F - 14.0 °F 86% 30.27 in 7.0 mi Calm Calm - N/A   Clear